Location: Harmony
(28.2000°N, 81.1500°W)
Time: 23:16:15
(UTC-04:00)

Cosmos 1417 Rocket - Pass Details

Date: 18 December 2017
Orbit: 951 x 1000 km, 83.0° (Epoch: 21 July)

Event Time Altitude Azimuth Distance (km) Brightness Sun altitude
Rises 18:41:39 0° 179° (S) 3,611 7.7 -15.0°
Reaches altitude 10° 18:44:08 10° 177° (S) 2,672 7.0 -15.5°
Maximum altitude 18:50:13 75° 93° (E) 995 4.4 -16.8°
Drops below altitude 10° 18:56:24 10° 9° (N) 2,712 6.6 -18.1°
Sets 18:58:55 0° 8° (N) 3,669 7.3 -18.6°
